Dickinson, ND

10:09 AM MDT on July 26, 2017 (GMT -0600)
Dickinson Municipal

Weather History for KDIK - April, 2014

Change the Weather History Date:

Wednesday, April 16, 2014

  Actual Average Record
Temperature  
Mean Temperature 26 °F 43 °F  
Max Temperature 30 °F 56 °F 83 °F (1981)
Min Temperature 22 °F 29 °F 3 °F (1905)
Degree Days  
Heating Degree Days 39 22  
Month to date heating degree days 509 407  
Since 1 July heating degree days 8347 7787  
Cooling Degree Days 0 0  
Month to date cooling degree days 0 0  
Year to date cooling degree days 0 0  
Moisture  
Dew Point 19 °F    
Average Humidity 74    
Maximum Humidity 84    
Minimum Humidity 63    
Precipitation  
Precipitation 0.00 in 0.05 in 1.75 in (1967)
Month to date precipitation 0.04 0.67  
Year to date precipitation 0.71 1.99  
Sea Level Pressure  
Sea Level Pressure 30.08 in    
Wind  
Wind Speed 11 mph (ENE)    
Max Wind Speed 20 mph    
Max Gust Speed 24 mph    
Visibility 10 miles    
Events      
T = Trace of Precipitation, MM = Missing Value Source: NWS Daily Summary

Daily Weather History Graph

Daily Weather History Graph

Search for Another Location

Airport or City:

Trip Planner

Search our weather history database for the weather conditions in past years. The results will help you decide how hot, cold, wet, or windy it might be!

Date:

Astronomy

Apr. 16, 2014 Rise Set
Actual Time 6:01 AM MDT 7:40 PM MDT
Civil Twilight 5:29 AM MDT 8:13 PM MDT
Nautical Twilight 4:51 AM MDT 8:52 PM MDT
Astronomical Twilight 4:08 AM MDT 9:34 PM MDT
Moon 9:32 PM MDT (4/16) 6:46 AM MDT (4/16)
Length of Visible Light 14h 43m
Length of Day
13h 39m
Full, 98% of the Moon is Illuminated
Apr 16
Full
Apr 22
Last Quarter
Apr 29
New
May 6
First Quarter
May 14
Full

Hourly Weather History & Observations

Time (MDT) Temp. Windchill Dew Point Humidity Pressure Visibility Wind Dir Wind Speed Gust Speed Precip Events Conditions
12:56 AM 28.0 °F 17.0 °F 18.0 °F 66% 29.76 in 10.0 mi ENE 13.8 mph - N/A   Overcast
1:56 AM 26.1 °F 13.6 °F 17.1 °F 69% 29.78 in 10.0 mi ENE 16.1 mph - N/A   Overcast
2:56 AM 26.1 °F 14.0 °F 17.1 °F 69% 29.77 in 10.0 mi East 15.0 mph - N/A   Overcast
3:56 AM 24.1 °F 13.7 °F 16.0 °F 71% 29.83 in 10.0 mi NE 10.4 mph - N/A   Partly Cloudy
4:56 AM 23.0 °F 11.7 °F 17.1 °F 78% 29.86 in 10.0 mi NE 11.5 mph - N/A   Clear
5:56 AM 21.9 °F 9.8 °F 17.1 °F 82% 29.91 in 10.0 mi NE 12.7 mph - N/A   Clear
6:56 AM 21.9 °F 9.8 °F 18.0 °F 85% 29.96 in 10.0 mi NE 12.7 mph - N/A   Partly Cloudy
7:08 AM 23.0 °F 10.6 °F 19.0 °F 85% 29.90 in 10.0 mi NE 13.8 mph - N/A   Mostly Cloudy
7:56 AM 25.0 °F 13.1 °F 19.0 °F 78% 29.99 in 10.0 mi NE 13.8 mph - N/A   Overcast
8:56 AM 26.1 °F 15.6 °F 19.9 °F 78% 30.04 in 10.0 mi ENE 11.5 mph - N/A   Overcast
9:56 AM 26.1 °F 15.0 °F 21.0 °F 81% 30.07 in 9.0 mi NE 12.7 mph - N/A   Overcast
10:56 AM 27.0 °F 16.7 °F 21.0 °F 78% 30.11 in 10.0 mi NE 11.5 mph - N/A   Overcast
11:56 AM 27.0 °F 18.0 °F 21.0 °F 78% 30.14 in 10.0 mi NE 9.2 mph - N/A   Overcast
12:56 PM 28.0 °F 20.0 °F 21.0 °F 75% 30.16 in 10.0 mi NE 8.1 mph - N/A   Overcast
1:56 PM 28.9 °F 20.4 °F 21.0 °F 72% 30.18 in 10.0 mi NE 9.2 mph - N/A   Overcast
2:56 PM 28.9 °F 19.8 °F 21.0 °F 72% 30.20 in 10.0 mi NE 10.4 mph - N/A   Overcast
3:56 PM 28.9 °F 20.4 °F 21.0 °F 72% 30.21 in 9.0 mi ENE 9.2 mph - N/A   Overcast
4:56 PM 28.9 °F 18.6 °F 21.0 °F 72% 30.23 in 10.0 mi NE 12.7 mph - N/A   Overcast
5:18 PM 28.9 °F 19.2 °F 19.9 °F 69% 30.13 in 10.0 mi ENE 11.5 mph - N/A   Overcast
5:56 PM 28.9 °F 18.6 °F 19.9 °F 69% 30.24 in 10.0 mi ENE 12.7 mph - N/A   Overcast
6:56 PM 28.0 °F 17.5 °F 19.0 °F 69% 30.26 in 10.0 mi ENE 12.7 mph - N/A   Overcast
7:56 PM 27.0 °F 18.0 °F 19.0 °F 72% 30.28 in 10.0 mi ENE 9.2 mph - N/A   Overcast
8:56 PM 27.0 °F 18.0 °F 19.9 °F 75% 30.29 in 10.0 mi East 9.2 mph - N/A   Overcast
9:56 PM 27.0 °F 18.7 °F 19.9 °F 75% 30.29 in 10.0 mi East 8.1 mph - N/A   Overcast
10:56 PM 27.0 °F 21.6 °F 19.9 °F 75% 30.30 in 10.0 mi East 4.6 mph - N/A   Overcast
11:56 PM 27.0 °F 20.5 °F 19.9 °F 75% 30.30 in 10.0 mi East 5.8 mph - N/A   Overcast